�N����,����,�~����,�C��,���x,�C��,����,���ϕ���,�ő�u�ԕ���,�ő厞����,���˗�,�I�_���x,�n�����x,�ő啗���N��,DTYPE
"20/07/02","00:10",0.0,20.2,89.4,1000.3,322.5,1.3,2.6,334.6,0.00,18.4,23.2,"00:09:28",1
"20/07/02","00:20",0.0,20.4,89.5,1000.0,336.8,1.1,2.4,335.2,0.00,18.7,23.2,"00:15:52",1
"20/07/02","00:30",0.0,20.3,89.9,1000.0,320.5,1.2,2.4,331.6,0.00,18.6,23.2,"00:21:28",1
"20/07/02","00:40",0.0,20.2,90.2,1000.0,328.0,1.3,2.4,322.3,0.00,18.6,23.1,"00:35:04",1
"20/07/02","00:50",0.0,20.0,90.6,1000.0,317.3,1.0,1.7,312.8,0.00,18.5,23.0,"00:42:16",1
"20/07/02","01:00",0.0,20.0,90.9,1000.0,326.7,1.0,2.1,330.0,0.00,18.5,23.0,"00:55:04",1
"20/07/02","01:10",0.0,20.0,91.2,1000.3,323.6,1.0,2.0,332.3,0.00,18.6,23.0,"01:09:04",1
"20/07/02","01:20",0.0,19.9,91.3,1000.8,305.1,1.1,2.1,328.4,0.00,18.5,23.0,"01:10:56",1
"20/07/02","01:30",0.0,19.8,91.5,1000.5,305.4,1.0,1.6,307.1,0.00,18.4,23.0,"01:21:04",1
"20/07/02","01:40",0.0,19.8,91.8,1000.8,301.1,1.5,4.1,326.5,0.00,18.5,22.9,"01:39:04",1
"20/07/02","01:50",0.0,20.3,91.7,1001.0,302.4,1.7,4.8,322.8,0.00,18.9,22.9,"01:42:00",1
"20/07/02","02:00",0.0,20.1,91.2,1000.8,322.8,1.8,4.5,333.9,0.00,18.7,22.9,"01:59:44",1
"20/07/02","02:10",0.0,20.3,90.1,1001.0,312.5,2.6,4.9,307.5,0.00,18.7,22.9,"02:05:44",1
"20/07/02","02:20",0.0,20.5,89.4,1001.0,313.8,1.2,2.6,333.9,0.00,18.7,22.7,"02:10:08",1
"20/07/02","02:30",0.0,20.2,88.6,1001.5,305.0,1.3,2.4,326.5,0.00,18.3,22.6,"02:24:48",1
"20/07/02","02:40",0.0,20.0,87.9,1001.2,294.5,1.7,3.2,306.6,0.00,18.0,22.7,"02:38:40",1
"20/07/02","02:50",0.0,20.4,86.6,1001.5,294.5,2.0,3.2,282.9,0.00,18.1,22.4,"02:43:44",1
"20/07/02","03:00",0.0,20.4,85.2,1001.5,293.6,1.7,4.4,325.9,0.00,17.9,22.7,"02:50:40",1
"20/07/02","03:10",0.0,20.4,83.9,1001.7,289.7,1.6,2.6,333.5,0.00,17.6,22.6,"03:03:04",1
"20/07/02","03:20",0.0,20.5,83.0,1001.7,283.4,1.7,2.9,266.8,0.00,17.6,22.5,"03:16:48",1
"20/07/02","03:30",0.0,20.3,82.4,1001.7,296.5,1.3,2.8,306.8,0.00,17.2,22.3,"03:26:48",1
"20/07/02","03:40",0.0,20.3,82.5,1001.9,285.2,1.3,2.1,256.0,0.00,17.3,22.4,"03:39:52",1
"20/07/02","03:50",0.0,20.2,82.5,1002.2,321.7,1.6,2.4,298.6,0.00,17.2,22.3,"03:40:40",1
"20/07/02","04:00",0.0,20.2,82.7,1002.4,285.6,1.2,2.1,312.5,0.00,17.2,22.4,"03:50:48",1
"20/07/02","04:10",0.0,20.2,82.7,1002.4,281.4,1.1,1.8,312.6,0.00,17.2,22.3,"04:08:56",1
"20/07/02","04:20",0.0,20.3,82.7,1002.4,273.6,1.5,3.1,268.1,0.00,17.3,22.2,"04:18:16",1
"20/07/02","04:30",0.0,20.2,82.6,1002.6,290.9,1.3,3.3,312.8,0.00,17.2,22.3,"04:28:40",1
"20/07/02","04:40",0.0,20.2,82.5,1002.6,312.9,1.6,3.2,330.6,0.00,17.2,22.4,"04:34:24",1
"20/07/02","04:50",0.0,20.0,82.7,1002.9,288.2,0.7,1.8,262.3,0.00,17.0,22.3,"04:49:20",1
"20/07/02","05:00",0.0,20.2,82.9,1003.1,283.4,1.5,3.2,260.3,0.00,17.2,22.0,"04:53:04",1
"20/07/02","05:10",0.0,20.3,82.8,1003.4,306.0,1.7,3.5,325.6,0.00,17.3,22.3,"05:03:12",1
"20/07/02","05:20",0.0,20.3,82.7,1003.4,291.6,1.3,2.2,265.5,0.00,17.3,22.2,"05:10:40",1
"20/07/02","05:30",0.0,20.3,82.8,1002.9,292.4,1.1,1.8,317.5,0.00,17.3,22.2,"05:20:32",1
"20/07/02","05:40",0.0,20.3,82.7,1003.6,271.0,1.0,2.0,240.1,0.00,17.3,22.1,"05:30:08",1
"20/07/02","05:50",0.0,20.4,82.8,1003.6,296.4,1.1,1.4,284.9,0.00,17.4,22.2,"05:42:08",1
"20/07/02","06:00",0.0,20.4,82.8,1003.6,310.5,1.8,2.7,326.9,0.00,17.4,22.3,"05:50:02",1
"20/07/02","06:10",0.0,20.5,82.7,1003.6,316.3,2.1,3.3,323.7,0.00,17.5,22.3,"06:06:32",1
"20/07/02","06:20",0.0,20.5,82.5,1003.8,314.4,2.1,2.8,331.7,0.00,17.5,22.4,"06:19:22",1
"20/07/02","06:30",0.0,20.5,82.5,1003.8,314.6,1.7,2.6,330.3,0.01,17.5,22.2,"06:22:24",1
"20/07/02","06:40",0.0,20.5,82.2,1003.8,322.0,2.1,3.4,328.9,0.01,17.4,22.4,"06:36:24",1
"20/07/02","06:50",0.0,20.7,82.1,1003.6,303.1,1.3,2.5,309.1,0.02,17.6,22.2,"06:41:12",1
"20/07/02","07:00",0.0,20.9,81.9,1003.8,321.6,1.8,2.9,323.7,0.04,17.7,22.4,"06:53:28",1
"20/07/02","07:10",0.0,21.1,81.6,1004.1,324.6,1.8,2.7,331.6,0.07,17.9,22.3,"07:03:24",1
"20/07/02","07:20",0.0,21.4,80.9,1004.1,301.5,1.7,3.3,327.0,0.07,18.0,22.3,"07:19:28",1
"20/07/02","07:30",0.0,21.5,80.3,1004.5,304.8,1.5,2.6,331.7,0.05,18.0,22.4,"07:28:24",1
"20/07/02","07:40",0.0,21.8,80.0,1004.3,305.3,0.7,1.6,310.5,0.06,18.2,22.4,"07:30:40",1
"20/07/02","07:50",0.0,22.0,79.3,1004.3,283.6,0.5,1.0,130.6,0.09,18.3,22.7,"07:40:56",1
"20/07/02","08:00",0.0,22.3,78.2,1004.8,291.0,0.8,2.1,316.9,0.09,18.4,22.5,"07:58:00",1
"20/07/02","08:10",0.0,22.5,77.6,1004.8,288.2,1.1,1.7,328.2,0.10,18.4,22.7,"08:00:16",1
"20/07/02","08:20",0.0,22.6,76.4,1004.5,227.7,0.6,1.1,118.7,0.11,18.3,22.8,"08:17:44",1
"20/07/02","08:30",0.0,22.9,75.5,1004.5,277.3,0.7,1.4,321.1,0.12,18.4,22.8,"08:27:28",1
"20/07/02","08:40",0.0,23.2,74.8,1004.5,289.0,0.8,2.0,321.1,0.12,18.5,22.8,"08:38:48",1
"20/07/02","08:50",0.0,23.4,74.3,1004.8,281.5,0.7,1.2,260.2,0.14,18.6,22.9,"08:44:08",1
"20/07/02","09:00",0.0,23.0,73.8,1004.8,316.2,1.6,2.8,322.1,0.06,18.1,23.2,"08:50:56",1
"20/07/02","09:10",0.0,23.0,74.9,1005.0,324.7,1.6,3.1,338.7,0.13,18.4,23.2,"09:06:48",1
"20/07/02","09:20",0.0,23.2,74.6,1005.0,314.3,1.5,2.9,331.0,0.16,18.5,23.1,"09:19:44",1
"20/07/02","09:30",0.0,23.5,74.3,1004.8,326.6,2.0,3.4,328.4,0.22,18.7,23.2,"09:27:36",1
"20/07/02","09:40",0.0,23.7,73.3,1005.0,331.1,2.2,4.5,339.3,0.28,18.7,23.5,"09:34:32",1
"20/07/02","09:50",0.0,24.5,72.1,1004.5,324.8,1.6,3.6,330.1,0.36,19.2,23.6,"09:45:44",1
"20/07/02","10:00",0.0,24.6,70.3,1004.5,319.7,2.1,5.1,337.1,0.30,18.9,23.5,"09:52:32",1
"20/07/02","10:10",0.0,24.4,69.4,1004.3,323.1,2.7,4.8,313.9,0.30,18.5,23.7,"10:00:48",1
"20/07/02","10:20",0.0,24.5,69.3,1004.3,305.1,2.1,6.0,340.7,0.32,18.6,23.9,"10:19:20",1
"20/07/02","10:30",0.0,25.0,68.6,1004.1,319.2,2.3,4.7,333.1,0.47,18.9,23.9,"10:22:40",1
"20/07/02","10:40",0.0,25.6,66.3,1003.8,309.2,1.7,3.9,349.8,0.53,18.9,24.3,"10:39:04",1
"20/07/02","10:50",0.0,26.0,65.1,1003.4,230.5,1.3,3.2,197.9,0.51,19.0,24.6,"10:47:44",1
"20/07/02","11:00",0.0,26.8,63.7,1003.8,205.7,0.8,3.7,229.9,0.52,19.4,24.9,"10:50:02",1
"20/07/02","11:10",0.0,26.7,63.0,1004.3,241.6,1.1,2.7,228.0,0.40,19.1,25.1,"11:00:32",1
"20/07/02","11:20",0.0,26.6,62.4,1004.5,221.0,1.3,3.2,217.0,0.35,18.9,25.3,"11:15:12",1
"20/07/02","11:30",0.0,26.3,61.3,1004.5,317.9,1.6,4.2,341.5,0.31,18.3,25.5,"11:29:12",1
"20/07/02","11:40",0.0,26.2,61.7,1004.5,333.4,1.8,3.9,335.6,0.33,18.3,25.4,"11:37:52",1
"20/07/02","11:50",0.0,26.6,61.0,1004.1,5.1,1.7,3.4,336.5,0.43,18.5,25.6,"11:40:32",1
"20/07/02","12:00",0.0,27.3,58.9,1004.1,305.9,1.2,3.1,350.9,0.46,18.6,25.8,"11:59:28",1
"20/07/02","12:10",0.0,27.8,60.1,1004.3,336.1,1.3,2.7,333.7,0.50,19.4,25.7,"12:01:44",1
"20/07/02","12:20",0.0,28.2,58.3,1004.1,291.7,1.1,2.8,326.4,0.50,19.3,26.0,"12:13:28",1
"20/07/02","12:30",0.0,27.6,56.5,1003.8,291.6,0.8,2.0,218.9,0.28,18.2,26.2,"12:24:24",1
"20/07/02","12:40",0.0,27.9,54.6,1004.1,33.0,0.8,2.4,339.8,0.45,18.0,26.2,"12:30:40",1
"20/07/02","12:50",0.0,28.7,53.8,1004.3,106.3,0.6,1.9,351.7,0.38,18.5,26.3,"12:40:02",1
"20/07/02","13:00",0.0,28.0,55.6,1004.1,24.8,0.6,1.9,348.3,0.20,18.3,26.2,"12:50:08",1
"20/07/02","13:10",0.0,28.0,57.5,1003.8,340.1,0.5,1.3,357.3,0.21,18.9,26.7,"13:01:04",1
"20/07/02","13:20",0.0,27.4,57.7,1003.6,15.1,1.0,1.8,359.9,0.18,18.4,26.5,"13:19:12",1
"20/07/02","13:30",0.0,26.9,58.2,1003.1,342.6,1.0,2.0,349.4,0.14,18.0,26.7,"13:24:40",1
"20/07/02","13:40",0.0,27.0,58.1,1003.4,326.7,0.5,1.4,352.0,0.14,18.1,26.6,"13:30:08",1
"20/07/02","13:50",0.0,27.1,58.8,1003.1,329.8,0.5,1.8,350.2,0.13,18.4,26.7,"13:46:08",1
"20/07/02","14:00",0.0,27.1,59.0,1002.9,315.2,0.6,2.0,225.2,0.14,18.4,26.4,"13:56:48",1
"20/07/02","14:10",0.0,26.8,60.0,1002.6,248.5,1.0,2.5,226.9,0.15,18.4,26.3,"14:05:28",1
"20/07/02","14:20",0.0,26.8,61.3,1002.4,245.0,1.1,2.8,258.3,0.14,18.8,26.5,"14:15:20",1
"20/07/02","14:30",0.0,27.0,63.4,1002.4,204.5,0.7,2.0,156.9,0.17,19.5,26.5,"14:24:24",1
"20/07/02","14:40",0.0,26.9,60.0,1002.6,210.0,0.8,2.5,215.9,0.16,18.5,26.3,"14:39:12",1
"20/07/02","14:50",0.0,26.4,62.4,1002.4,147.3,1.1,2.8,112.0,0.09,18.7,26.3,"14:49:36",1
"20/07/02","15:00",0.0,25.7,64.0,1002.6,140.4,1.7,3.7,104.3,0.05,18.4,26.1,"14:57:12",1
"20/07/02","15:10",0.0,25.4,65.3,1002.9,123.0,1.1,2.4,166.2,0.03,18.5,26.2,"15:00:56",1
"20/07/02","15:20",0.0,25.7,66.2,1003.6,273.4,0.7,1.8,300.5,0.03,19.0,26.1,"15:17:44",1
"20/07/02","15:30",0.0,25.5,67.1,1002.9,285.1,1.6,3.7,222.2,0.04,19.0,26.0,"15:22:32",1
"20/07/02","15:40",0.0,25.3,68.0,1003.6,318.8,1.3,3.3,345.0,0.03,19.0,26.0,"15:30:24",1
"20/07/02","15:50",0.0,25.2,68.8,1003.6,324.2,1.2,2.5,335.4,0.03,19.1,25.8,"15:43:12",1
"20/07/02","16:00",0.0,25.4,69.6,1003.8,320.0,1.2,3.7,348.1,0.07,19.5,25.9,"15:51:44",1
"20/07/02","16:10",0.0,25.7,69.6,1003.6,325.4,1.5,4.2,343.8,0.10,19.8,25.6,"16:05:12",1
"20/07/02","16:20",0.0,25.5,69.6,1004.1,341.3,1.3,2.9,327.4,0.08,19.6,25.6,"16:16:40",1
"20/07/02","16:30",0.0,26.0,69.2,1003.8,345.0,1.3,2.6,350.5,0.18,20.0,25.7,"16:24:16",1
"20/07/02","16:40",0.0,26.2,67.8,1003.6,343.2,1.5,3.1,1.2,0.14,19.8,25.7,"16:39:28",1
"20/07/02","16:50",0.0,26.6,67.6,1003.6,346.9,1.1,2.9,345.3,0.17,20.2,25.9,"16:43:44",1
"20/07/02","17:00",0.0,27.0,64.3,1003.1,333.1,1.2,2.4,350.8,0.06,19.7,25.8,"16:54:56",1
"20/07/02","17:10",0.0,26.7,63.3,1003.6,358.6,0.8,1.7,23.7,0.04,19.2,25.7,"17:01:52",1
"20/07/02","17:20",0.0,26.3,66.0,1003.8,334.8,1.0,1.9,343.3,0.07,19.5,25.7,"17:16:40",1
"20/07/02","17:30",0.0,26.1,67.1,1003.6,338.9,1.2,2.4,337.7,0.06,19.6,25.7,"17:26:40",1
"20/07/02","17:40",0.0,26.3,67.2,1003.8,342.9,1.2,2.4,345.3,0.06,19.8,25.7,"17:39:44",1
"20/07/02","17:50",0.0,26.2,67.2,1003.6,342.7,1.2,2.2,330.7,0.04,19.7,25.7,"17:43:12",1
"20/07/02","18:00",0.0,25.8,68.4,1004.1,354.9,0.8,2.0,337.0,0.03,19.6,25.5,"17:54:00",1
"20/07/02","18:10",0.0,25.4,69.3,1004.3,0.7,1.0,2.6,44.2,0.02,19.4,25.6,"18:09:20",1
"20/07/02","18:20",0.0,25.1,70.4,1003.8,357.3,1.3,2.4,33.0,0.01,19.4,25.6,"18:16:08",1
"20/07/02","18:30",0.0,24.8,71.9,1004.1,341.4,1.2,2.4,336.2,0.00,19.4,25.6,"18:26:40",1
"20/07/02","18:40",0.0,24.3,73.5,1004.5,342.0,1.6,4.1,337.3,0.00,19.3,25.4,"18:39:12",1
"20/07/02","18:50",0.0,24.0,74.0,1004.8,337.5,2.3,4.3,345.5,0.00,19.1,25.3,"18:44:40",1
"20/07/02","19:00",0.0,23.9,73.9,1004.8,338.1,2.5,5.1,347.5,0.00,19.0,25.2,"18:52:40",1
"20/07/02","19:10",0.0,23.7,74.2,1004.8,340.2,2.5,5.6,339.4,0.00,18.9,25.1,"19:06:56",1
"20/07/02","19:20",0.0,23.4,75.0,1005.2,333.7,3.0,5.8,316.9,0.00,18.8,25.0,"19:13:52",1
"20/07/02","19:30",0.0,23.2,75.8,1005.7,333.8,3.0,6.3,347.6,0.00,18.7,24.9,"19:28:32",1
"20/07/02","19:40",0.0,23.0,76.3,1006.0,332.9,3.1,5.4,335.1,0.00,18.6,24.9,"19:33:36",1
"20/07/02","19:50",0.0,22.8,76.9,1006.0,333.1,2.5,4.3,315.9,0.00,18.6,24.7,"19:44:16",1
"20/07/02","20:00",0.0,22.6,77.5,1006.2,337.5,2.1,4.1,339.9,0.00,18.5,24.6,"19:54:48",1
"20/07/02","20:10",0.0,22.6,77.9,1006.2,337.9,2.0,4.2,333.7,0.00,18.6,24.4,"20:00:56",1
"20/07/02","20:20",0.0,22.5,78.1,1006.4,339.5,1.6,3.3,346.8,0.00,18.5,24.4,"20:15:12",1
"20/07/02","20:30",0.0,22.4,78.3,1006.4,335.3,1.7,4.2,331.6,0.00,18.5,24.4,"20:21:12",1
"20/07/02","20:40",0.0,22.3,78.6,1006.9,338.3,1.8,3.5,339.9,0.00,18.4,24.2,"20:31:20",1
"20/07/02","20:50",0.0,22.3,78.8,1007.1,328.6,1.7,2.8,329.1,0.00,18.5,24.2,"20:40:56",1
"20/07/02","21:00",0.0,22.2,79.0,1007.6,338.0,2.0,4.1,340.7,0.00,18.4,24.2,"20:50:16",1
"20/07/02","21:10",0.0,22.2,79.1,1007.4,344.1,1.8,3.6,349.0,0.00,18.4,24.2,"21:04:40",1
"20/07/02","21:20",0.0,22.2,79.2,1007.4,344.8,1.8,4.2,350.3,0.00,18.5,24.1,"21:11:04",1
"20/07/02","21:30",0.0,22.1,79.3,1007.6,344.0,1.5,3.1,14.8,0.00,18.4,24.0,"21:27:44",1
"20/07/02","21:40",0.0,22.0,79.4,1007.4,335.3,1.5,3.4,344.0,0.00,18.3,23.9,"21:31:44",1
"20/07/02","21:50",0.0,22.0,79.4,1007.4,344.4,1.3,2.8,336.1,0.00,18.3,23.9,"21:44:24",1
"20/07/02","22:00",0.0,22.0,79.4,1007.6,348.8,1.0,1.7,326.1,0.00,18.3,23.8,"21:50:16",1
"20/07/02","22:10",0.0,22.2,79.8,1007.8,347.0,1.1,2.6,340.6,0.00,18.6,23.9,"22:08:08",1
"20/07/02","22:20",0.0,21.7,80.9,1007.6,306.6,1.3,2.5,323.5,0.00,18.3,23.9,"22:13:44",1
"20/07/02","22:30",0.0,21.3,81.7,1007.6,293.6,1.1,1.4,310.2,0.00,18.1,23.9,"22:24:08",1
"20/07/02","22:40",0.0,21.2,82.5,1007.8,288.3,1.0,1.3,324.7,0.00,18.1,23.6,"22:37:20",1
"20/07/02","22:50",0.0,21.1,82.9,1007.6,295.5,0.8,1.6,323.2,0.00,18.1,23.6,"22:48:16",1
"20/07/02","23:00",0.0,21.2,83.5,1007.8,311.3,1.0,1.7,326.1,0.00,18.3,23.4,"22:58:08",1
"20/07/02","23:10",0.0,21.1,84.0,1007.8,312.1,1.2,1.7,324.4,0.00,18.3,23.6,"23:06:00",1
"20/07/02","23:20",0.0,21.0,84.3,1008.3,302.3,1.0,1.6,330.8,0.00,18.3,23.4,"23:10:56",1
"20/07/02","23:30",0.0,21.0,84.8,1007.8,315.1,1.2,2.9,324.5,0.00,18.4,23.4,"23:26:56",1
"20/07/02","23:40",0.0,21.0,85.0,1008.1,325.5,1.1,2.1,331.5,0.00,18.4,23.4,"23:37:52",1
"20/07/02","23:50",0.0,21.0,85.2,1008.3,324.2,1.3,1.8,332.8,0.00,18.5,23.4,"23:44:24",1
"20/07/02","24:00",0.0,21.0,85.4,1007.8,333.5,1.2,2.2,317.7,0.00,18.5,23.6,"23:50:24",1
